Simultaneous Nadir Overpasses (SNOs) Predictions

Prediction of SNOs between NOAA-20 and AQUA Satellite Orbit:

Table of predicted SNOs for the next 14.0 days since TLE Epoch: 11/29/2025
Index Date (NOAA-20) Time (NOAA-20) Lat,Lon (NOAA-20) SZA (NOAA-20 ) Date (AQUA) Time (AQUA) Lat,Lon (AQUA) SZA (AQUA ) Distance(km) Time Diff (sec)
1 11/29/2025 19:50:48 81.23,-179.77 106.92 11/29/2025 19:50:39 81.23,-179.84 106.94 1.29 9
2 12/02/2025 04:31:02 -81.23,-130.03 72.66 12/02/2025 04:31:17 -81.23,-129.89 72.69 2.50 15
3 12/02/2025 05:21:46 81.23, 37.74 107.28 12/02/2025 05:20:34 81.23, 37.76 107.32 0.81 72
4 12/04/2025 13:11:17 81.24, -80.20 107.71 12/04/2025 13:11:55 81.23, -80.01 107.66 3.26 38
5 12/04/2025 14:02:01 -81.23, 87.47 72.34 12/04/2025 14:01:13 -81.22, 87.41 72.31 1.46 48
6 12/06/2025 21:51:31 -81.23, -30.08 72.00 12/06/2025 21:52:33 -81.22, -30.26 72.02 3.21 62
7 12/06/2025 22:42:16 81.23, 137.23 108.01 12/06/2025 22:41:50 81.22, 137.35 108.00 2.30 26
8 12/09/2025 07:22:29 -81.22,-172.27 71.80 12/09/2025 07:22:26 -81.23,-172.45 71.77 3.32 3
9 12/11/2025 16:02:44 81.23,-122.65 108.49 12/11/2025 16:03:02 81.22,-122.78 108.49 2.19 18



Historial Predications of SNOs between NOAA-20 and AQUA
